Regional Weather Roundup
Issued by NWS

Home | Current Version | Previous Version | Text Only | Print | Product List | Glossary Off
Versions: 1 2 3 4 5 6 7 8 9 10 11 12 13 14 15 16 17 18 19 20 21 22 23 24 25 26 27 28 29 30 31 32 33 34 35 36 37 38 39 40 41 42 43 44 45 46 47 48 49 50

000
ASUS43 KOAX 310210
RWRNE

WEATHER ROUNDUP FOR NEBRASKA
NATIONAL WEATHER SERVICE OMAHA NE
900 PM CDT THU OCT 30 2014

NOTES: SATELLITE DATA IS BEING USED TO AUGMENT CLOUD COVER ABOVE
       12000 FEET.
       "FAIR" INDICATES FEW OR NO CLOUDS BELOW 12,000 FEET WITH NO
       SIGNIFICANT WEATHER AND/OR OBSTRUCTIONS TO VISIBILITY.

  * THESE STATIONS DO NOT REPORT WEATHER SUCH AS RAIN...SNOW OR FOG.

NEZ001>004-019>022-054>056-310300-
NEBRASKA PANHANDLE

CITY           SKY/WX    TMP DP  RH WIND       PRES   REMARKS
SCOTTSBLUFF    CLEAR     46  34  62 E13       30.38R
ALLIANCE       CLEAR     38  30  73 NE6       30.39R WCI  33
CHADRON        CLEAR     38  30  73 CALM      30.42R
KIMBALL        CLEAR     39  29  66 E6        30.37R
SIDNEY         CLEAR     45  30  55 NE9       30.39R
$$

NEZ057>060-069>072-079>082-310300-
SOUTHWEST NEBRASKA

CITY           SKY/WX    TMP DP  RH WIND       PRES   REMARKS
NORTH PLATTE   CLEAR     44  31  60 NE13      30.39R
IMPERIAL       CLEAR     44  29  55 NE8       30.37R
LEXINGTON      CLEAR     46  33  62 N8        30.38R
MCCOOK         CLEAR     48  30  49 N13       30.36R
OGALLALA       CLEAR     47  33  57 NE9       30.38R
$$

NEZ005>010-023>029-035>040-094-310300-
NORTH CENTRAL NEBRASKA

CITY           SKY/WX    TMP DP  RH WIND       PRES   REMARKS
VALENTINE      CLEAR     37  29  72 N6        30.44R WCI  32
AINSWORTH      CLEAR     36  31  79 NW6       30.42R WCI  32
BROKEN BOW     CLEAR     43  33  68 N16G23    30.39R
O`NEILL        CLEAR     35  32  88 N6        30.42R WCI  30
ORD            MOCLDY    41  33  73 N14       30.39R
THEDFORD       CLEAR     39  32  75 CALM      30.42R
$$

NEZ041-046>049-061>064-073>077-083>087-310300-
SOUTH CENTRAL NEBRASKA

CITY           SKY/WX    TMP DP  RH WIND       PRES   REMARKS
GRAND ISLAND   MOCLDY    44  35  70 N21G28    30.37R
AURORA         CLOUDY    45  35  66 N17G24    30.34R
HASTINGS       CLEAR     44  34  67 N16G25    30.34R
HEBRON         CLEAR     46  35  64 N21G26    30.31R
HOLDREGE       CLEAR     46  32  57 N15       30.36R
KEARNEY *      CLEAR     43  32  65 N18       30.37R
YORK           MOCLDY    45  37  76 N18G30    30.32R
$$

NEZ011>018-030>034-042>045-310300-
NORTHEAST NEBRASKA

CITY           SKY/WX    TMP DP  RH WIND       PRES   REMARKS
NORFOLK        CLOUDY    44  36  73 N23G31    30.36R
ALBION         CLOUDY    42  33  71 N17G25    30.37R
BLAIR          CLOUDY    50  41  72 N17G26    30.26R
FREMONT        CLOUDY    47  40  75 NW18G25   30.31R
TEKAMAH        CLOUDY    49  39  68 N21G35    30.30R
WAYNE          CLOUDY    44  36  73 N14G23    30.36R
$$

NEZ050>053-065>068-078-088>093-310300-
SOUTHEAST NEBRASKA

CITY           SKY/WX    TMP DP  RH WIND       PRES   REMARKS
LINCOLN        PTCLDY    46  37  71 N20       30.30R
OMAHA EPPLEY   CLOUDY    50  40  68 N21G30    30.25R
BEATRICE       CLEAR     45  37  74 N17G26    30.28R
FALLS CITY     CLEAR     52  39  61 NW15G25   30.19R
NEBRASKA CITY  CLEAR     48  35  62 N17G25    30.23R
PLATTSMOUTH    CLOUDY    47  38  70 NW15G21   30.24R
$$

NEZ044-045-051>053-067-310300-
OMAHA AREA

CITY           SKY/WX    TMP DP  RH WIND       PRES   REMARKS
OMAHA EPPLEY   CLOUDY    50  40  68 N21G30    30.25R
BLAIR          CLOUDY    50  41  72 N17G26    30.26R
FREMONT        CLOUDY    47  40  75 NW18G25   30.31R
MILLARD        PTCLDY    48  40  74 NW13      30.26R
OFFUTT AFB     MOCLDY    50  41  72 N17G26    30.24R
PLATTSMOUTH    CLOUDY    47  38  70 NW15G21   30.24R
WAHOO          CLOUDY    47  39  74 N18G26    30.29R
$$



USA.gov is the U.S. government's official web portal to all federal, state and local government web resources and services.